Newcastle, WY

10:48 PM MDT on October 16, 2017 (GMT -0600)
Mondell

Weather History for KECS - February, 2014

Change the Weather History Date:

Tuesday, February 18, 2014

  Actual Average (KCUT) Record (KCUT)
Temperature  
Mean Temperature 32 °F -  
Max Temperature 41 °F 39 °F 62 °F (1943)
Min Temperature 24 °F 14 °F -27 °F (2006)
Degree Days  
Heating Degree Days 32    
Moisture  
Dew Point 18 °F    
Average Humidity 54    
Maximum Humidity 80    
Minimum Humidity 33    
Precipitation  
Precipitation 0.00 in - - ()
Sea Level Pressure  
Sea Level Pressure 29.82 in    
Wind  
Wind Speed 12 mph (NNW)    
Max Wind Speed 31 mph    
Max Gust Speed 40 mph    
Visibility 10 miles    
Events      
Averages and records for this station are not official NWS values.
T = Trace of Precipitation, MM = Missing Value Source: NWS Daily Summary

Daily Weather History Graph

Daily Weather History Graph

Search for Another Location

Airport or City:

Trip Planner

Search our weather history database for the weather conditions in past years. The results will help you decide how hot, cold, wet, or windy it might be!

Date:

Astronomy

Feb. 18, 2014 Rise Set
Actual Time 6:51 AM MST 5:31 PM MST
Civil Twilight 6:22 AM MST 6:00 PM MST
Nautical Twilight 5:48 AM MST 6:34 PM MST
Astronomical Twilight 5:15 AM MST 7:07 PM MST
Moon 9:36 PM MST (2/18) 8:16 AM MST (2/18)
Length of Visible Light 11h 38m
Length of Day
10h 39m
Waning Gibbous, 87% of the Moon is Illuminated
Feb 18
Waning Gibbous
Feb 22
Last Quarter
Mar 1
New
Mar 8
First Quarter
Mar 16
Full

Hourly Weather History & Observations

Time (MST) Temp. Windchill Dew Point Humidity Pressure Visibility Wind Dir Wind Speed Gust Speed Precip Events Conditions
12:15 AM 35.6 °F 31.7 °F 19.4 °F 52% 29.67 in 10.0 mi North 4.6 mph - N/A   Clear
12:35 AM 33.8 °F 28.6 °F 21.2 °F 60% 29.67 in 10.0 mi NNE 5.8 mph - N/A   Clear
12:55 AM 33.8 °F 27.0 °F 21.2 °F 60% 29.66 in 10.0 mi North 8.1 mph - N/A   Clear
1:15 AM 35.6 °F 30.7 °F 19.4 °F 52% 29.66 in 10.0 mi North 5.8 mph - N/A   Clear
1:35 AM 33.8 °F 28.6 °F 21.2 °F 60% 29.65 in 10.0 mi North 5.8 mph - N/A   Clear
1:55 AM 33.8 °F 28.6 °F 19.4 °F 56% 29.65 in 10.0 mi NNE 5.8 mph - N/A   Clear
2:15 AM 33.8 °F 26.4 °F 21.2 °F 60% 29.64 in 10.0 mi North 9.2 mph - N/A   Clear
2:35 AM 35.6 °F 30.7 °F 19.4 °F 52% 29.63 in 10.0 mi North 5.8 mph - N/A   Clear
2:55 AM 37.4 °F 32.1 °F 17.6 °F 45% 29.62 in 10.0 mi WNW 6.9 mph - N/A   Clear
3:15 AM 33.8 °F 28.6 °F 19.4 °F 56% 29.62 in 10.0 mi North 5.8 mph - N/A   Clear
3:35 AM 32.0 °F 26.4 °F 21.2 °F 64% 29.63 in 10.0 mi North 5.8 mph - N/A   Clear
3:55 AM 33.8 °F 30.8 °F 17.6 °F 52% 29.63 in 10.0 mi North 3.5 mph - N/A   Clear
4:15 AM 33.8 °F 29.6 °F 17.6 °F 52% 29.64 in 10.0 mi North 4.6 mph - N/A   Clear
4:35 AM 33.8 °F 27.7 °F 19.4 °F 56% 29.64 in 10.0 mi North 6.9 mph - N/A   Clear
4:55 AM 33.8 °F 27.0 °F 19.4 °F 56% 29.65 in 10.0 mi North 8.1 mph - N/A   Clear
5:15 AM 33.8 °F 22.5 °F 19.4 °F 56% 29.68 in 10.0 mi NW 19.6 mph 27.6 mph N/A   Clear
5:35 AM 35.6 °F 23.4 °F 21.2 °F 56% 29.70 in 10.0 mi NNW 25.3 mph 31.1 mph N/A   Clear
5:55 AM 33.8 °F 21.6 °F 21.2 °F 60% 29.72 in 10.0 mi NNW 23.0 mph 26.5 mph N/A   Clear
6:15 AM 33.8 °F 23.5 °F 23.0 °F 65% 29.72 in 10.0 mi NNW 16.1 mph 24.2 mph N/A   Clear
6:35 AM 33.8 °F 22.5 °F 24.8 °F 70% 29.75 in 10.0 mi NW 19.6 mph 33.4 mph N/A   Scattered Clouds
6:55 AM 33.8 °F 21.6 °F 23.0 °F 65% 29.76 in 10.0 mi NNW 23.0 mph 33.4 mph N/A   Clear
7:15 AM 35.6 °F 25.9 °F 21.2 °F 56% 29.76 in 10.0 mi NW 16.1 mph 26.5 mph N/A   Clear
7:35 AM 33.8 °F 23.5 °F 21.2 °F 60% 29.77 in 10.0 mi NNW 16.1 mph 20.7 mph N/A   Clear
7:55 AM 35.6 °F 25.5 °F 19.4 °F 52% 29.78 in 10.0 mi NNW 17.3 mph 21.9 mph N/A   Clear
8:15 AM 35.6 °F 25.2 °F 19.4 °F 52% 29.79 in 10.0 mi NW 18.4 mph 23.0 mph N/A   Clear
8:35 AM 35.6 °F 25.2 °F 21.2 °F 56% 29.81 in 10.0 mi NW 18.4 mph 26.5 mph N/A   Clear
8:55 AM 35.6 °F 25.2 °F 21.2 °F 56% 29.82 in 10.0 mi NW 18.4 mph 23.0 mph N/A   Clear
9:15 AM 35.6 °F 25.9 °F 23.0 °F 60% 29.84 in 10.0 mi NW 16.1 mph 21.9 mph N/A   Clear
9:35 AM 37.4 °F 26.4 °F 23.0 °F 56% 29.85 in 10.0 mi NW 23.0 mph 31.1 mph N/A   Clear
9:55 AM 37.4 °F 27.2 °F 21.2 °F 52% 29.85 in 10.0 mi NW 19.6 mph 26.5 mph N/A   Clear
10:15 AM 37.4 °F 25.4 °F 17.6 °F 45% 29.87 in 10.0 mi NW 27.6 mph 38.0 mph N/A   Clear
10:35 AM 37.4 °F 25.6 °F 17.6 °F 45% 29.87 in 10.0 mi NW 26.5 mph 40.3 mph N/A   Clear
10:55 AM 37.4 °F 25.6 °F 19.4 °F 48% 29.88 in 10.0 mi NW 26.5 mph 35.7 mph N/A   Clear
11:15 AM 37.4 °F 26.1 °F 19.4 °F 48% 29.89 in 10.0 mi NW 24.2 mph 36.8 mph N/A   Clear
11:35 AM 37.4 °F 25.2 °F 17.6 °F 45% 29.89 in 10.0 mi NW 28.8 mph 36.8 mph N/A   Clear
11:55 AM 37.4 °F 25.4 °F 17.6 °F 45% 29.89 in 10.0 mi NW 27.6 mph 38.0 mph N/A   Clear
12:15 PM 37.4 °F 24.8 °F 17.6 °F 45% 29.89 in 10.0 mi NW 31.1 mph 39.1 mph N/A   Clear
12:35 PM 37.4 °F 26.1 °F 17.6 °F 45% 29.89 in 10.0 mi NW 24.2 mph 33.4 mph N/A   Clear
12:55 PM 37.4 °F 25.0 °F 14.0 °F 38% 29.89 in 10.0 mi NW 29.9 mph 38.0 mph N/A   Clear
1:15 PM 39.2 °F 28.5 °F 14.0 °F 36% 29.88 in 10.0 mi NW 24.2 mph 33.4 mph N/A   Clear
1:35 PM 39.2 °F 27.8 °F 14.0 °F 36% 29.89 in 10.0 mi NW 27.6 mph 35.7 mph N/A   Clear
1:55 PM 39.2 °F 27.4 °F 12.2 °F 33% 29.89 in 10.0 mi NW 29.9 mph 36.8 mph N/A   Clear
2:15 PM 39.2 °F 29.6 °F 12.2 °F 33% 29.89 in 10.0 mi NW 19.6 mph 27.6 mph N/A   Clear
2:35 PM 41.0 °F 31.1 °F 14.0 °F 33% 29.90 in 10.0 mi NW 23.0 mph 29.9 mph N/A   Clear
2:55 PM 39.2 °F 28.5 °F 12.2 °F 33% 29.91 in 10.0 mi NW 24.2 mph 31.1 mph N/A   Clear
3:15 PM 39.2 °F 29.3 °F 12.2 °F 33% 29.91 in 10.0 mi NW 20.7 mph 33.4 mph N/A   Clear
3:35 PM 39.2 °F 29.0 °F 12.2 °F 33% 29.93 in 10.0 mi NW 21.9 mph 32.2 mph N/A   Clear
3:55 PM 39.2 °F 29.3 °F 14.0 °F 36% 29.93 in 10.0 mi NW 20.7 mph 24.2 mph N/A   Clear
4:15 PM 39.2 °F 30.5 °F 14.0 °F 36% 29.94 in 10.0 mi NW 16.1 mph 25.3 mph N/A   Clear
4:35 PM 39.2 °F 31.2 °F 14.0 °F 36% 29.94 in 10.0 mi NW 13.8 mph - N/A   Clear
4:55 PM 37.4 °F 28.5 °F 14.0 °F 38% 29.93 in 10.0 mi NW 15.0 mph - N/A   Clear
5:15 PM 37.4 °F 30.8 °F 17.6 °F 45% 29.93 in 10.0 mi NW 9.2 mph - N/A   Clear
5:35 PM 33.8 °F 26.4 °F 19.4 °F 56% 29.93 in 10.0 mi NNW 9.2 mph - N/A   Clear
5:55 PM 32.0 °F 25.6 °F 21.2 °F 64% 29.93 in 10.0 mi NNW 6.9 mph - N/A   Clear
6:15 PM 32.0 °F 25.6 °F 19.4 °F 60% 29.93 in 10.0 mi North 6.9 mph - N/A   Clear
6:35 PM 32.0 °F - 19.4 °F 60% 29.94 in 10.0 mi Calm Calm - N/A   Clear
6:55 PM 32.0 °F 28.7 °F 17.6 °F 55% 29.94 in 10.0 mi North 3.5 mph - N/A   Clear
7:15 PM 32.0 °F 26.4 °F 19.4 °F 60% 29.93 in 10.0 mi North 5.8 mph - N/A   Clear
7:35 PM 30.2 °F 26.7 °F 19.4 °F 64% 29.93 in 10.0 mi NNE 3.5 mph - N/A   Clear
7:55 PM 30.2 °F 25.4 °F 19.4 °F 64% 29.93 in 10.0 mi NE 4.6 mph - N/A   Clear
8:15 PM 28.4 °F 23.3 °F 19.4 °F 69% 29.91 in 10.0 mi NNE 4.6 mph - N/A   Clear
8:35 PM 28.4 °F 20.4 °F 19.4 °F 69% 29.91 in 10.0 mi North 8.1 mph - N/A   Clear
8:55 PM 28.4 °F 19.7 °F 19.4 °F 69% 29.89 in 10.0 mi North 9.2 mph - N/A   Clear
9:15 PM 28.4 °F 20.4 °F 17.6 °F 64% 29.88 in 10.0 mi North 8.1 mph - N/A   Clear
9:35 PM 28.4 °F 19.7 °F 19.4 °F 69% 29.86 in 10.0 mi North 9.2 mph - N/A   Clear
9:55 PM 28.4 °F 22.2 °F 17.6 °F 64% 29.85 in 10.0 mi NNE 5.8 mph - N/A   Clear
10:15 PM 26.6 °F 21.2 °F 19.4 °F 74% 29.85 in 10.0 mi South 4.6 mph - N/A   Clear
10:35 PM 26.6 °F - 17.6 °F 69% 29.84 in 10.0 mi Calm Calm - N/A   Clear
10:55 PM 26.6 °F - 17.6 °F 69% 29.83 in 10.0 mi Calm Calm - N/A   Clear
11:15 PM 24.8 °F 16.9 °F 19.4 °F 80% 29.82 in 10.0 mi SSE 6.9 mph - N/A   Clear
11:35 PM 28.4 °F 17.5 °F 17.6 °F 64% 29.80 in 10.0 mi SE 13.8 mph - N/A   Clear
11:55 PM 28.4 °F 18.0 °F 17.6 °F 64% 29.80 in 10.0 mi SE 12.7 mph - N/A   Clear